[[{"header":{"parameterUnit":"m.s-1","parameterCategory":1,"la1":30.2991,"la2":30.254,"lo1":-89.0895,"lo2":-89.0444,"dy":0.0017,"dx":0.0017,"nx":28,"ny":28,"refTime":"2024-05-31T21:00:00:Z","depth":0,"parameterNumber":2,"parameterNumberName":"U-component_of_WINDS"},"data":[0,0,0,0,0,0,0,0,0,0,0,0,0,0,0,0,0,0,0,0,0,0,0,0,0,0,0,0,0,0,0,0,0,0,0,0,0,0,0,0,0,0,0,0,0,0,0,0,0,0,0,0,0,0,0,0,0,0,-3.9638,-3.9641,0,-3.9947,-3.9951,-3.9954,-4.0056,-4.0055,-4.0053,-4.0052,-4.037,-4.038,-4.0389,0,0,0,0,0,0,0,0,0,0,0,0,0,-3.9136,-3.9145,-3.9637,-3.9641,-3.9645,-3.9947,-3.9951,-3.9955,-4.0056,-4.0055,-4.0053,-4.0051,-4.0367,-4.0379,-4.039,0,0,0,0,0,0,0,0,0,0,0,0,0,-3.9391,-3.9148,-3.9637,-3.9732,-3.9743,-3.9946,-3.9951,-3.9956,-4.0057,-4.0055,-4.0053,-4.0051,-4.0363,-4.0378,-4.0392,-4.0523,0,0,-4.0437,-4.0443,0,0,0,0,0,0,0,0,-3.9376,-3.9409,-3.9714,-3.9726,-3.9739,-3.9961,-3.9891,-4.0146,-4.0057,-3.9938,-4.0052,-4.005,-4.0236,-4.0261,-4.0323,-4.0538,-4.0551,-4.0438,-4.0447,-4.0453,-4.0457,0,0,0,0,0,0,0,-3.9358,-3.9396,-3.976,-3.9718,-3.9734,-3.976,-3.9794,-3.994,-4.0094,-3.9948,-3.9956,-3.9991,-4.0242,-4.0309,-4.0332,-4.0556,-4.0437,-4.045,-4.0459,-4.0465,-4.0895,-4.0898,0,0,0,0,0,0,-3.9324,-3.9381,-3.975,-3.9769,-3.9549,-3.9771,-3.9809,-3.9892,-4.0093,-4.0122,-3.9993,-3.9995,-4.0285,-4.0314,-4.0343,-4.051,-4.0453,-4.0467,-4.0475,-4.0892,-4.0896,-4.0898,0,0,0,0,0,0,-3.9313,-3.9356,-3.9738,-3.9578,-3.9628,-3.9782,-3.9874,-3.9899,-3.9966,-4.0127,-4.0155,-4.0032,-4.0285,-4.0323,-4.0478,-4.0522,-4.0473,-4.0486,-4.0889,-4.0893,-4.0897,-4.0843,0,0,0,0,0,0,-3.9298,-3.9352,-3.9402,-3.9578,-3.9636,-3.9866,-3.9877,-3.9906,-3.9991,-3.9996,-4.0172,-4.0199,-4.0286,-4.0455,-4.0492,-4.0541,-4.0498,-4.0886,-4.0891,-4.0896,-4.0842,-4.0845,-4.0848,0,0,0,0,0,-3.928,-3.9374,-3.9404,-3.9448,-3.9702,-3.9868,-3.9901,-4.0,-3.9994,-4.0046,-4.015,-4.0193,-4.0512,-4.047,-4.0513,-4.0567,-4.0883,-4.089,-4.0895,-4.084,-4.0844,-4.0848,0,0,0,0,0,0,-3.9199,-3.9399,-3.9434,-3.9588,-3.971,-3.9885,-3.9953,-4.0001,-4.0127,-4.0127,-4.0245,-4.0284,-4.043,-4.0515,-4.0465,-4.0705,-4.07,-4.0715,-4.0644,-4.0649,-4.0652,-4.0627,-4.051,0,0,0,0,0,-3.9199,-3.9317,-3.9485,-3.9605,-3.9665,-3.9798,-3.9874,-3.994,-4.0071,-4.0124,-4.0239,-4.0365,-4.0495,-4.0577,-4.0705,-4.0856,-4.0896,-4.0915,-4.0917,-4.0919,-4.093,-4.1017,-4.1027,-4.0918,-4.0918,-4.0918,0,0,-3.92,-3.9324,-3.9391,-3.9592,-3.9694,-3.9814,-3.9841,-3.9966,-4.0056,-4.0143,-4.0296,-4.0385,-4.0535,-4.0688,-4.0762,-4.0763,-4.0969,-4.0927,-4.0927,-4.0937,-4.1024,-4.1034,-4.1043,-4.0922,-4.0921,-4.0921,0,0,-3.9263,-3.9369,-3.948,-3.9583,-3.9738,-3.9827,-3.9853,-4.0022,-4.0085,-4.0241,-4.0308,-4.0418,-4.0638,-4.0742,-4.0823,-4.0929,-4.0973,-4.0968,-4.0982,-4.1066,-4.1075,-4.1083,-4.112,-4.1132,-4.0978,-4.0978,-4.0978,0,-3.9245,-3.9427,-3.9531,-3.9654,-3.974,-3.9825,-3.9939,-4.0034,-4.0223,-4.0281,-4.0281,-4.056,-4.0666,-4.0846,-4.0872,-4.0935,-4.097,-4.0947,-4.1065,-4.1074,-4.1083,-4.112,-4.1134,-4.0976,-4.0977,-4.0977,-4.0977,0,-3.9397,-3.9522,-3.9594,-3.9774,-3.987,-3.9987,-4.011,-4.0195,-4.0253,-4.0342,-4.0501,-4.0632,-4.0788,-4.0837,-4.0894,-4.1025,-4.1022,-4.1042,-4.1038,-4.109,-4.1127,-4.1142,-4.0974,-4.0974,-4.0975,-4.0975,0,0,-3.9414,-3.9652,-3.9677,-3.976,-3.9939,-4.0038,-4.0161,-4.0314,-4.0384,-4.0513,-4.0618,-4.0804,-4.0824,-4.0917,-4.0988,-4.1062,-4.1137,-4.1074,-4.1079,-4.108,-4.129,-4.1272,-4.1286,-4.1169,-4.1172,-4.1175,-4.1277,0,-3.9499,-3.972,-3.9818,-3.9995,-4.0113,-4.0197,-4.0304,-4.0426,-4.0514,-4.0628,-4.0726,-4.0855,-4.0872,-4.0929,-4.1006,-4.1111,-4.1181,-4.1106,-4.1269,-4.1273,-4.1226,-4.1306,-4.1287,-4.1377,-4.1292,-4.1295,-4.1296,0,-3.9626,-3.9755,-3.9943,-4.0109,-4.0163,-4.0256,-4.0405,-4.0513,-4.0654,-4.0713,-4.0818,-4.0886,-4.102,-4.101,-4.1196,-4.1142,-4.1216,-4.1278,-4.1284,-4.1301,-4.1286,-4.1324,-4.1408,-4.142,-4.132,-4.1318,-4.1317,0,-3.9618,-3.9839,-3.9981,-4.005,-4.0247,-4.0312,-4.0397,-4.0537,-4.0623,-4.0754,-4.0811,-4.0956,-4.1035,-4.1146,-4.1253,-4.1236,-4.1429,-4.1427,-4.1482,-4.1479,-4.1516,-4.1512,-4.1612,-4.1566,-4.1566,-4.1566,-4.1566,0,-3.9702,-3.9813,-3.998,-4.0066,-4.0195,-4.0309,-4.0433,-4.0525,-4.0649,-4.0756,-4.0839,-4.0938,-4.1073,-4.119,-4.1275,-4.1416,-4.1452,-4.1503,-4.1524,-4.1495,-4.1488,-4.1543,-4.1539,-4.157,-4.1569,-4.1568,-4.1567,0,-3.9713,-3.9829,-3.9989,-4.0164,-4.0211,-4.0297,-4.0448,-4.0536,-4.0629,-4.0763,-4.0802,-4.0948,-4.109,-4.1208,-4.1395,-4.1452,-4.1598,-4.1624,-4.155,-4.1561,-4.1608,-4.1601,-4.1745,-4.1769,-4.1708,-4.1708,-4.1709,0,-3.9757,-3.9845,-4.003,-4.0107,-4.0191,-4.0315,-4.0404,-4.0521,-4.061,-4.0779,-4.0847,-4.0995,-4.1119,-4.1343,-4.1466,-4.161,-4.1638,-4.1679,-4.166,-4.1628,-4.1638,-4.163,-4.164,-4.1679,-4.1679,-4.1679,-4.1679,0,-3.9823,-3.9877,-4.0001,-4.0146,-4.0249,-4.0369,-4.0491,-4.055,-4.069,-4.0787,-4.0933,-4.1029,-4.122,-4.1366,-4.1524,-4.1614,-4.167,-4.1685,-4.1705,-4.1675,-4.1628,-4.1653,-4.1552,-4.168,-4.168,-4.168,-4.168,-4.168,-3.9852,-3.9934,-4.0077,-4.0213,-4.0318,-4.0431,-4.0522,-4.0627,-4.0751,-4.0915,-4.0977,-4.1127,-4.1269,-4.1486,-4.1577,-4.1697,-4.1703,-4.1732,-4.174,-4.1745,-4.174,-4.161,-4.1726,-4.1726,-4.1726,-4.1726,-4.1726,0,-3.9922,-4.0018,-4.0142,-4.0311,-4.0418,-4.0463,-4.0601,-4.0688,-4.0818,-4.0945,-4.1067,-4.1235,-4.1378,-4.1514,-4.1664,-4.1734,-4.1764,-4.1769,-4.1764,-4.1784,-4.1726,-4.1693,-4.1743,-4.1743,-4.1743,-4.1743,-4.1743,-4.1743,-3.997,-4.0112,-4.0183,-4.0378,-4.0475,-4.0621,-4.0696,-4.0801,-4.0904,-4.1088,-4.1207,-4.1295,-4.1426,-4.1587,-4.1721,-4.1758,-4.1808,-4.1807,-4.185,-4.1792,-4.1788,-4.1785,-4.1755,-4.1817,-4.1817,-4.1899,-4.19,-4.19]},{"header":{"parameterUnit":"m.s-1","parameterCategory":1,"la1":30.2991,"la2":30.254,"lo1":-89.0895,"lo2":-89.0444,"dy":0.0017,"dx":0.0017,"nx":28,"ny":28,"refTime":"2024-05-31T21:00:00:Z","depth":0,"parameterNumber":3,"parameterNumberName":"V-component_of_WINDS"},"data":[0,0,0,0,0,0,0,0,0,0,0,0,0,0,0,0,0,0,0,0,0,0,0,0,0,0,0,0,0,0,0,0,0,0,0,0,0,0,0,0,0,0,0,0,0,0,0,0,0,0,0,0,0,0,0,0,0,0,4.7095,4.7096,0,4.717,4.7171,4.7172,4.7214,4.7214,4.7215,4.7215,4.7285,4.7287,4.7288,0,0,0,0,0,0,0,0,0,0,0,0,0,4.6984,4.6985,4.7095,4.7096,4.7097,4.717,4.7171,4.7172,4.7214,4.7214,4.7215,4.7215,4.7284,4.7286,4.7289,0,0,0,0,0,0,0,0,0,0,0,0,0,4.7042,4.6986,4.7095,4.7127,4.7131,4.717,4.7171,4.7172,4.7214,4.7214,4.7215,4.7215,4.7284,4.7286,4.7289,4.73,0,0,4.7297,4.7298,0,0,0,0,0,0,0,0,4.7039,4.7046,4.7122,4.7125,4.7129,4.7183,4.7158,4.7215,4.7214,4.7182,4.7215,4.7215,4.7251,4.7256,4.7269,4.7303,4.7306,4.7297,4.7298,4.73,4.73,0,0,0,0,0,0,0,4.7035,4.7043,4.7125,4.7123,4.7127,4.7136,4.7145,4.7169,4.7214,4.7185,4.7188,4.7197,4.7253,4.7267,4.7271,4.7307,4.7297,4.7299,4.7301,4.7302,4.7355,4.7355,0,0,0,0,0,0,4.7026,4.704,4.7122,4.7127,4.7084,4.7138,4.7148,4.7166,4.7214,4.7222,4.7197,4.7199,4.7262,4.7268,4.7274,4.7291,4.73,4.7302,4.7303,4.7355,4.7355,4.7355,0,0,0,0,0,0,4.7024,4.7033,4.7119,4.7084,4.7096,4.714,4.7159,4.7167,4.7181,4.7223,4.723,4.7203,4.7263,4.727,4.7294,4.7294,4.7303,4.7306,4.7355,4.7355,4.7355,4.7324,0,0,0,0,0,0,4.7021,4.7032,4.7038,4.7084,4.7098,4.714,4.7159,4.7168,4.7186,4.7189,4.7231,4.7238,4.7263,4.729,4.7296,4.7298,4.7308,4.7356,4.7355,4.7355,4.7326,4.7323,4.7321,0,0,0,0,0,4.7016,4.7025,4.7038,4.7048,4.7106,4.7139,4.7147,4.7178,4.7186,4.7191,4.7219,4.7236,4.7293,4.7292,4.73,4.7302,4.7356,4.7355,4.7355,4.7327,4.7324,4.7321,0,0,0,0,0,0,4.6974,4.7031,4.7047,4.7071,4.71,4.7147,4.7154,4.7174,4.72,4.7202,4.7237,4.7246,4.7267,4.7286,4.7284,4.7315,4.7326,4.7327,4.7302,4.7299,4.7297,4.7292,4.731,0,0,0,0,0,4.6968,4.6993,4.704,4.7056,4.7071,4.711,4.7126,4.7148,4.7179,4.7191,4.7219,4.7247,4.7272,4.7286,4.7311,4.7329,4.7338,4.7334,4.7332,4.733,4.733,4.7342,4.7341,4.7354,4.7354,4.7354,0,0,4.6955,4.6989,4.7002,4.7049,4.7075,4.7098,4.712,4.7143,4.716,4.7193,4.7219,4.724,4.7274,4.7295,4.7306,4.7312,4.7329,4.7329,4.7327,4.7329,4.7342,4.734,4.7339,4.7354,4.7354,4.7354,0,0,4.6943,4.6972,4.6989,4.7015,4.7055,4.7081,4.7085,4.7129,4.7146,4.7172,4.7198,4.7218,4.7259,4.7282,4.7299,4.7298,4.7315,4.7305,4.7293,4.7304,4.7303,4.7302,4.7302,4.7301,4.7305,4.7305,4.7305,0,4.6921,4.6959,4.6995,4.7018,4.7037,4.7072,4.7089,4.7111,4.7156,4.7168,4.7175,4.7228,4.7253,4.7281,4.7281,4.7293,4.7299,4.73,4.73,4.73,4.73,4.73,4.73,4.7303,4.7304,4.7304,4.7304,0,4.693,4.6956,4.6965,4.701,4.7031,4.705,4.7088,4.7105,4.7125,4.715,4.7176,4.7208,4.724,4.7248,4.7267,4.7278,4.7282,4.7294,4.7305,4.7296,4.7297,4.7298,4.7301,4.7302,4.7302,4.7303,0,0,4.6892,4.696,4.6962,4.6984,4.7031,4.705,4.7071,4.7105,4.7119,4.7148,4.7166,4.7201,4.7214,4.7233,4.7255,4.7264,4.7263,4.7276,4.7277,4.7273,4.7278,4.7268,4.7268,4.7275,4.7275,4.7275,4.7275,0,4.6888,4.693,4.6963,4.6992,4.7016,4.705,4.7068,4.7098,4.7122,4.7145,4.7171,4.7195,4.721,4.7222,4.7233,4.726,4.7264,4.7261,4.7291,4.7291,4.7282,4.7269,4.7258,4.7257,4.7276,4.7276,4.7276,0,4.6887,4.6919,4.695,4.6997,4.7008,4.7024,4.7059,4.708,4.7115,4.7132,4.7155,4.7178,4.7201,4.7211,4.7242,4.7239,4.7253,4.7268,4.7269,4.7273,4.7283,4.7272,4.7257,4.7257,4.7277,4.7277,4.7277,0,4.6857,4.6907,4.6933,4.695,4.7005,4.7015,4.7038,4.7073,4.7092,4.7121,4.7134,4.7164,4.7181,4.7204,4.7234,4.7239,4.7263,4.7275,4.7277,4.7276,4.728,4.7279,4.7267,4.7289,4.7289,4.7289,4.7289,0,4.6848,4.6866,4.6921,4.6937,4.6958,4.6996,4.7016,4.7041,4.7072,4.7092,4.7122,4.714,4.718,4.7203,4.7226,4.7249,4.7256,4.727,4.7276,4.7267,4.7266,4.7277,4.7278,4.7289,4.7289,4.7289,4.7289,0,4.6818,4.6855,4.6886,4.6936,4.6949,4.6962,4.7004,4.702,4.7047,4.7073,4.7081,4.7122,4.715,4.7184,4.7222,4.7238,4.7259,4.7267,4.7248,4.7251,4.7251,4.7251,4.7246,4.7248,4.7268,4.7268,4.7267,0,4.6809,4.6825,4.6877,4.6895,4.6917,4.6944,4.6964,4.7002,4.7022,4.7064,4.7074,4.7106,4.7133,4.7176,4.7208,4.7238,4.7248,4.7244,4.7252,4.7244,4.7248,4.7247,4.7249,4.7242,4.7241,4.7241,4.7241,0,4.6791,4.6809,4.6839,4.6875,4.6899,4.6928,4.6959,4.6971,4.7015,4.7035,4.7066,4.7087,4.7128,4.7158,4.7192,4.7214,4.7234,4.7238,4.724,4.7231,4.722,4.7227,4.7242,4.7238,4.7238,4.7238,4.7239,4.7239,4.6772,4.6787,4.6828,4.6859,4.6887,4.6916,4.6934,4.6964,4.6992,4.703,4.705,4.708,4.7115,4.7164,4.7185,4.7208,4.7215,4.7218,4.7218,4.7219,4.7216,4.7216,4.7214,4.7214,4.7214,4.7214,4.7215,0,4.6755,4.6783,4.6812,4.6856,4.6881,4.6901,4.6936,4.6955,4.6983,4.7015,4.7042,4.7077,4.7107,4.7143,4.7175,4.7187,4.7197,4.7194,4.7193,4.7198,4.7208,4.7203,4.7185,4.7185,4.7185,4.7185,4.7185,4.7185,4.6749,4.6778,4.6801,4.6843,4.6871,4.6903,4.6922,4.6948,4.6974,4.7013,4.7039,4.7063,4.7097,4.7132,4.716,4.717,4.718,4.7174,4.7186,4.7195,4.7197,4.72,4.7195,4.7176,4.7176,4.7175,4.7175,4.7175]}]]